Regional Weather Roundup
Issued by NWS

Home | Current Version | Previous Version | Text Only | Print | Product List | Glossary On
Versions: 1 2 3 4 5 6 7 8 9 10 11 12 13 14 15 16 17 18 19 20 21 22 23 24 25 26 27 28 29 30 31 32 33 34 35 36 37 38 39 40 41 42 43 44 45 46 47 48 49 50
000
ASUS43 KDTX 240401
RWRMI
MICHIGAN HOURLY REGIONAL WEATHER ROUNDUP
NATIONAL WEATHER SERVICE DETROIT/PONTIAC MI
1100 PM EST MON JAN 23 2017

NOTE: "FAIR" INDICATES FEW OR NO CLOUDS BELOW 12,000 FEET WITH NO
SIGNIFICANT WEATHER AND/OR OBSTRUCTION TO VISIBILITY.

MIZ047>049-052>055-059>063-066>070-074>076-081>083-240500-
SOUTHEAST LOWER MICHIGAN

CITY           SKY/WX    TMP DP  RH WIND       PRES   REMARKS
ADRIAN         LGT RAIN  41  41 100 N5        29.70F FOG
ALMA           LGT RAIN  37  37  99 NW7       29.75S WCI  31
ANN ARBOR      CLOUDY    41  41 100 NE3       29.69S FOG
BAD AXE        CLOUDY    36  36 100 CALM      29.72F FOG
CARO           FOG       37  37 100 CALM      29.71S VSB 1/2
DETROIT CITY   CLOUDY    40  40 100 E6        29.71R FOG
DETROIT        FOG       41  41 100 N5        29.71R VSB 1/4
FLINT          FOG       38  38 100 NE3       29.71F VSB 1
GROSSE ILE     CLOUDY    40  40  99 N5        29.70R FOG
HILLSDALE      DRIZZLE   37  37 100 NW7       29.70S WCI  32
HOWELL         LGT RAIN  38  38  97 CALM      29.69F VSB 3/4

CITY           SKY/WX    TMP DP  RH WIND       PRES   REMARKS
JACKSON        LGT RAIN  39  37  92 NW7       29.71S WCI  34
LAMBERTVILLE   CLOUDY    43  42  94 NE3       29.70R FOG
LANSING        LGT RAIN  37  35  92 NW8       29.73F FOG     WCI  31
LAPEER         FOG       37  37 100 NE3       29.70F VSB 1/4
MASON          DRIZZLE   38  38 100 NW6       29.72S WCI  33
MONROE         FOG       42  42 100 N5        29.70R VSB 3/4
MT. CLEMENS    CLOUDY    39  39 100 NE6       29.68R FOG     WCI  35
PONTIAC        FOG       38  36  92 CALM      29.68S VSB 1/8
PORT HOPE        N/A     36  35  96 SE3       29.71F
PORT HURON     CLOUDY    37  36  93 CALM      29.71S
TRI CITIES     LGT RAIN  36  36 100 N7        29.74S VSB 1   WCI  30
MIDLAND        DRIZZLE   37  36  97 NW3       29.74S
TROY           FOG       39  38  96 NE5       29.72R VSB 1
SAGINAW HB     MIX PCPN  36  34  93 N3        29.72F VSB 1/2
$$
MIZ043>046-050>051-056>058-064>065-071>073-077>080-240500-
SOUTHWEST LOWER MICHIGAN

CITY           SKY/WX    TMP DP  RH WIND       PRES   REMARKS
BATTLE CREEK   LGT RAIN  40  40 100 N3        29.74R
BENTON HARBOR  CLOUDY    38  37  97 MISG      29.79R
BIG RAPIDS     LGT SNOW  37  37  98 CALM      29.75S
COLDWATER      LGT RAIN  40  40 100 N3        29.73S
FREMONT        CLOUDY    38  38 100 NW7       29.77R WCI  33
HOLLAND        CLOUDY    38  36  92 NW6       29.77S WCI  33
GRAND RAPIDS   LGT RAIN  40  38  93 N6        29.75R
IONIA          LGT RAIN  37  37 100 NW5       29.74S WCI  34
KALAMAZOO      CLOUDY    41  38  89 N8        29.75R
LUDINGTON      CLOUDY    37  37 100 NW3       29.79R FOG
MARSHALL       RAIN      39  38  97 NW3       29.73S
MOUNT PLEASANT LGT RAIN  37  36  99 CALM      29.75S
MUSKEGON       CLOUDY    39  37  92 NW7       29.78R WCI  34
SOUTH HAVEN    CLOUDY    38  38  99 N6        29.78R FOG     WCI  33
$$
MIZ016>042-240500-
NORTHERN LOWER MICHIGAN

CITY           SKY/WX    TMP DP  RH WIND       PRES   REMARKS
ALPENA         LGT RAIN  36  35  96 SE3       29.77S
BEAVER ISLAND  LGT RAIN  33  33 100 NE6       29.78S WCI  28
BELLAIRE       LGT SNOW  34  34 100 CALM      29.77S
CADILLAC       LGT RAIN  36  35  96 CALM      29.74S VSB 1
CHARLEVOIX     LGT RAIN  35  35 100 CALM      29.80S
FRANKFORT      CLOUDY   N/A N/A N/A CALM      29.78R FOG
GAYLORD        LGT RAIN  36  32  85 CALM      29.74S FOG
GRAYLING       LGT RAIN  35  34  97 CALM      29.76S
HARBOR SPRINGS LGT RAIN  34  34 100 CALM      29.77S
HOUGHTON LAKE  LGT RAIN  35  34  96 CALM      29.75S FOG
MANISTEE       CLOUDY    37  36  96 W6        29.78R WCI  32
OSCODA         CLOUDY    37  37  97 CALM      29.74F FOG
PELLSTON       LGT RAIN  34  32  92 CALM      29.78R FOG
ROGERS CITY    LGT SNOW  36  35  96 CALM      29.78S
TRAVERSE CITY  LGT RAIN  37  37 100 CALM      29.76S FOG
$$
MIZ007>008-015-240500-
EASTERN UPPER MICHIGAN

CITY           SKY/WX    TMP DP  RH WIND       PRES   REMARKS
KINROSS        LGT RAIN  33  33 100 E7        29.79S WCI  27
MACKINAC ISLAN LGT SNOW  33  33 100 E6        29.78S WCI  27
NEWBERRY       LGT SNOW  32  32  99 NE3       29.78S
S. S. MARIE    RAIN      35  34  96 E3        29.79S FOG
MUNISING         N/A     35  35 100 CALM      29.79R
$$
MIZ004>006-011>014-085-240500-
CENTRAL UPPER MICHIGAN

CITY           SKY/WX    TMP DP  RH WIND       PRES   REMARKS
MANISTIQUE     CLOUDY    33  32  97 NE3       29.78S
ESCANABA       FOG       35  35 100 CALM      29.80S VSB 1/2
SAWYER-GWINN   FOG       32  32 100 NW5       29.78S VSB 1/4 WCI  27
$$
MIZ001>003-009>011-084-240500-
WESTERN UPPER MICHIGAN

CITY           SKY/WX    TMP DP  RH WIND       PRES   REMARKS
IRON MOUNTAIN  CLOUDY    35  32  88 CALM      29.77S
HOUGHTON       FOG       34  33  96 CALM      29.78R VSB 1
COPPER HARBOR    N/A     35  35 100 CALM      29.79S
IRONWOOD       CLOUDY    34  34 100 W3        29.80R FOG
$$

ABBREVIATIONS USED IN REMARKS
   TC - TEMPERATURE IN CELSIUS
  WCI - WIND CHILL INDEX
   HX - HEAT INDEX
  VSB - VISIBILITY





USA.gov is the U.S. government's official web portal to all federal, state and local government web resources and services.